Date String (YYYY-MM-DD hh:mm:ss) UTC,Instrument flags,Ambient pressure (hPa),Sample flow (lpm),Bypass flow (lpm),Sample temperature (°C),Ambient temperature (°C),ASC tube jacket temperature (°C),LED temperature (°C),Box temperature (°C),Sample RH (%),Span deviation,Mass concentration (μg/m³),Mass concentration (μg/m³),Mass concentration (μg/m³)
DateTimeUTC,F1_M11,P_M11,Q1_M11,Q2_M11,T1_M11,T2_M11,T3_M11,T4_M11,T5_M11,U1_M11,ZSPAN_M11,X0_M11,X2_M11,X1_M11
2022-07-24 15:00:00,,0831.0,5.00,0.00,32.5,29.2,00.0,40.6,32.9,34.4,-000.5,0013.72,0009.31,0008.18
2022-07-24 15:01:00,,0831.0,4.99,0.00,32.5,29.2,00.0,40.6,32.9,34.1,-000.5,0014.11,0009.46,0008.23
2022-07-24 15:02:00,,0831.0,5.00,0.00,32.5,29.3,00.0,40.6,32.9,33.6,-000.6,0014.43,0009.51,0008.27
2022-07-24 15:03:00,,0831.0,5.00,0.00,32.5,29.1,00.0,40.6,33.0,33.6,-000.4,0014.60,0009.54,0008.32
2022-07-24 15:04:00,,0831.0,5.00,0.00,32.4,28.3,00.0,40.5,32.9,33.9,-000.4,0014.89,0009.59,0008.38
2022-07-24 15:05:00,,0831.0,5.00,0.00,32.4,27.8,00.0,40.4,32.7,35.0,-000.3,0015.00,0009.63,0008.42
2022-07-24 15:06:00,,0831.0,5.01,0.00,32.4,27.6,00.0,40.4,32.6,33.7,-000.6,0015.28,0009.66,0008.44
2022-07-24 15:07:00,,0830.9,5.00,0.00,32.3,27.7,00.0,40.4,32.5,35.0,-000.4,0015.11,0009.61,0008.43
2022-07-24 15:08:00,,0830.9,5.01,0.00,32.3,27.8,00.0,40.4,32.6,34.9,-000.1,0015.12,0009.59,0008.41
2022-07-24 15:09:00,,0831.0,4.99,0.00,32.4,28.0,00.0,40.4,32.6,34.1,0000.1,0015.27,0009.58,0008.35
2022-07-24 15:10:00,,0831.0,5.01,0.00,32.4,28.1,00.0,40.4,32.6,34.0,-000.3,0015.22,0009.54,0008.30
2022-07-24 15:11:00,,0831.0,5.00,0.00,32.4,28.3,00.0,40.4,32.6,33.4,-000.0,0015.20,0009.49,0008.26
2022-07-24 15:12:00,,0831.0,5.00,0.00,32.3,28.4,00.0,40.4,32.6,33.6,0000.1,0015.06,0009.40,0008.22
2022-07-24 15:13:00,,0831.0,5.00,0.00,32.3,28.6,00.0,40.4,32.6,33.5,0000.2,0015.27,0009.36,0008.19
2022-07-24 15:14:00,,0831.0,5.00,0.00,32.2,28.7,00.0,40.4,32.6,33.4,-000.1,0015.33,0009.31,0008.13
2022-07-24 15:15:00,,0831.0,5.00,0.00,32.2,28.8,00.0,40.4,32.6,33.5,-000.3,0015.23,0009.25,0008.05
2022-07-24 15:16:00,,0831.0,5.00,0.00,32.2,28.9,00.0,40.4,32.6,34.1,-000.3,0015.15,0009.19,0007.99
2022-07-24 15:17:00,,0830.9,4.99,0.00,32.1,29.0,00.0,40.4,32.7,34.0,-000.0,0014.82,0009.20,0008.00
2022-07-24 15:18:00,,0830.9,5.01,0.00,32.1,29.1,00.0,40.4,32.7,34.2,-000.0,0014.81,0009.19,0008.01
2022-07-24 15:19:00,,0830.9,4.99,0.00,32.0,29.1,00.0,40.4,32.7,34.3,-000.2,0014.70,0009.15,0008.01
2022-07-24 15:20:00,,0830.9,4.99,0.00,32.0,29.2,00.0,40.4,32.7,33.8,-000.2,0014.57,0009.12,0008.04
2022-07-24 15:21:00,,0830.9,5.00,0.00,32.0,29.3,00.0,40.4,32.8,33.3,0000.2,0014.55,0009.13,0008.05
2022-07-24 15:22:00,,0831.0,5.02,0.00,31.9,29.2,00.0,40.4,32.8,33.6,0000.1,0014.82,0009.16,0008.06
2022-07-24 15:23:00,,0830.9,4.99,0.00,31.9,28.5,00.0,40.3,32.7,34.0,-000.2,0015.12,0009.21,0008.08
2022-07-24 15:24:00,,0830.8,5.01,0.00,31.9,27.9,00.0,40.2,32.6,35.0,-000.3,0014.97,0009.24,0008.12
2022-07-24 15:25:00,,0830.9,4.99,0.00,31.9,27.7,00.0,40.2,32.6,34.9,-000.6,0015.16,0009.31,0008.17
2022-07-24 15:26:00,,0830.8,5.01,0.00,31.8,27.7,00.0,40.1,32.5,35.2,-000.4,0014.93,0009.35,0008.21
2022-07-24 15:27:00,,0830.8,4.99,0.00,31.9,27.8,00.0,40.1,32.5,34.4,-000.5,0014.94,0009.36,0008.20
2022-07-24 15:28:00,,0830.7,5.00,0.00,32.0,28.0,00.0,40.1,32.5,33.9,-000.5,0014.90,0009.27,0008.11
2022-07-24 15:29:00,,0830.8,5.00,0.00,32.0,28.2,00.0,40.1,32.5,33.9,-000.4,0014.86,0009.22,0008.06
2022-07-24 15:30:00,,0830.7,5.00,0.00,32.0,28.3,00.0,40.1,32.5,33.4,-000.3,0014.74,0009.14,0008.00
2022-07-24 15:31:00,,0830.8,4.99,0.00,31.9,28.5,00.0,40.1,32.5,33.0,-000.4,0014.60,0009.03,0007.90
2022-07-24 15:32:00,,0830.7,5.00,0.00,31.9,28.6,00.0,40.1,32.5,33.2,-000.4,0014.54,0008.93,0007.80
2022-07-24 15:33:00,,0830.8,5.01,0.00,31.9,28.7,00.0,40.1,32.5,33.5,-000.3,0014.25,0008.84,0007.71
2022-07-24 15:34:00,,0830.8,5.00,0.00,31.8,28.8,00.0,40.2,32.5,33.8,-000.4,0013.99,0008.79,0007.66
2022-07-24 15:35:00,,0830.8,5.00,0.00,31.8,28.9,00.0,40.2,32.6,33.8,-000.3,0013.67,0008.76,0007.60
2022-07-24 15:36:00,,0830.7,4.99,0.00,31.8,29.0,00.0,40.2,32.6,33.7,0000.0,0013.37,0008.69,0007.53
2022-07-24 15:37:00,,0830.8,5.00,0.00,31.8,29.1,00.0,40.2,32.6,34.1,0000.2,0013.28,0008.60,0007.46
2022-07-24 15:38:00,,0830.8,5.01,0.00,31.7,29.2,00.0,40.2,32.6,34.5,0000.0,0013.30,0008.64,0007.50
2022-07-24 15:39:00,,0830.7,5.01,0.00,31.7,29.2,00.0,40.2,32.7,35.1,-000.1,0013.22,0008.66,0007.55
2022-07-24 15:40:00,,0830.8,4.99,0.00,31.8,29.3,00.0,40.2,32.8,34.1,0000.1,0013.25,0008.63,0007.51
2022-07-24 15:41:00,,0830.8,5.01,0.00,31.9,29.1,00.0,40.1,32.9,33.0,0000.2,0013.38,0008.60,0007.46
2022-07-24 15:42:00,,0830.8,4.98,0.00,32.0,28.4,00.0,40.1,32.7,33.7,0000.0,0013.42,0008.61,0007.46
2022-07-24 15:43:00,,0830.7,5.00,0.00,31.9,27.9,00.0,40.0,32.6,34.6,-000.3,0013.58,0008.67,0007.51
2022-07-24 15:44:00,,0830.7,5.01,0.00,31.9,27.8,00.0,40.0,32.5,34.7,-000.1,0013.72,0008.71,0007.60
2022-07-24 15:45:00,,0830.8,4.99,0.00,31.9,27.8,00.0,40.0,32.4,34.7,0000.5,0013.67,0008.77,0007.68
2022-07-24 15:46:00,,0830.7,5.00,0.00,31.8,27.9,00.0,40.0,32.4,34.0,0000.7,0013.82,0008.87,0007.75
2022-07-24 15:47:00,,0830.7,4.99,0.00,31.8,28.1,00.0,40.0,32.4,33.1,0000.9,0013.63,0008.76,0007.67
2022-07-24 15:48:00,,0830.7,5.01,0.00,31.7,28.3,00.0,40.0,32.4,33.1,0000.4,0014.00,0008.63,0007.58
2022-07-24 15:49:00,,0830.7,4.99,0.00,31.7,28.4,00.0,40.0,32.4,32.9,0000.2,0013.74,0008.46,0007.45
2022-07-24 15:50:00,,0830.6,5.00,0.00,31.6,28.6,00.0,40.0,32.4,33.5,0000.2,0013.68,0008.40,0007.38
2022-07-24 15:51:00,,0830.6,5.02,0.00,31.6,28.7,00.0,40.0,32.4,34.0,0000.1,0013.62,0008.42,0007.41
2022-07-24 15:52:00,,0830.6,4.99,0.00,31.6,28.8,00.0,40.0,32.5,34.6,-000.1,0013.58,0008.51,0007.52
2022-07-24 15:53:00,,0830.6,5.00,0.00,31.5,28.9,00.0,40.0,32.5,33.2,0000.0,0013.77,0008.56,0007.54
2022-07-24 15:54:00,,0830.6,5.01,0.00,31.5,29.0,00.0,40.0,32.5,33.9,-000.0,0013.90,0008.47,0007.48
2022-07-24 15:55:00,,0830.6,5.00,0.00,31.5,29.1,00.0,40.0,32.6,33.6,-000.3,0013.68,0008.42,0007.43
2022-07-24 15:56:00,,0830.6,5.00,0.00,31.5,29.2,00.0,40.0,32.6,33.7,-000.5,0013.52,0008.30,0007.30
2022-07-24 15:57:00,,0830.7,4.99,0.00,31.5,29.2,00.0,40.0,32.6,34.0,-000.8,0013.30,0008.16,0007.23
2022-07-24 15:58:00,,0830.7,5.00,0.00,31.5,28.7,00.0,39.9,32.6,35.2,-000.8,0013.34,0008.27,0007.34
2022-07-24 15:59:00,,0830.7,5.00,0.00,31.6,28.0,00.0,39.9,32.6,34.9,-000.5,0013.07,0008.36,0007.36
